Pine Bluffs Muni, Pine Bluffs, WY

1:51 AM MDT on April 22, 2018 (GMT -0600)
Pine Bluffs Muni, Pine Bluffs

Weather History for K82V - February, 2014

Change the Weather History Date:

Friday, February 21, 2014

  Actual Average (KCYS) Record (KCYS)
Temperature  
Mean Temperature 31 °F -  
Max Temperature 41 °F 42 °F 66 °F (1995)
Min Temperature 21 °F 21 °F -13 °F (1911)
Degree Days  
Heating Degree Days 34    
Moisture  
Dew Point 19 °F    
Average Humidity 60    
Maximum Humidity 93    
Minimum Humidity 39    
Precipitation  
Precipitation 0.00 in - - ()
Sea Level Pressure  
Sea Level Pressure 29.81 in    
Wind  
Wind Speed 21 mph (WNW)    
Max Wind Speed 33 mph    
Max Gust Speed 43 mph    
Visibility 10 miles    
Events      
Averages and records for this station are not official NWS values.
T = Trace of Precipitation, MM = Missing Value Source: NWS Daily Summary

Daily Weather History Graph

Daily Weather History Graph

Search for Another Location

Airport or City:

Astronomy

Feb. 21, 2014 Rise Set
Actual Time 6:42 AM MST 5:38 PM MST
Civil Twilight 6:14 AM MST 6:06 PM MST
Nautical Twilight 5:42 AM MST 6:38 PM MST
Astronomical Twilight 5:10 AM MST 7:10 PM MST
Moon No Moon Rise 10:04 AM MST (2/21)
Length of Visible Light 11h 51m
Length of Day
10h 55m
Waning Gibbous, 60% of the Moon is Illuminated
Feb 21
Waning Gibbous
Feb 22
Last Quarter
Mar 1
New
Mar 8
First Quarter
Mar 16
Full

Hourly Weather History & Observations

Time (MST) Temp. Windchill Dew Point Humidity Pressure Visibility Wind Dir Wind Speed Gust Speed Precip Events Conditions
12:15 AM 30.2 °F 19.8 °F 15.8 °F 55% 29.79 in 10.0 mi West 13.8 mph - N/A   Clear
12:35 AM 32.0 °F 19.8 °F 15.8 °F 51% 29.78 in 10.0 mi West 20.7 mph 29.9 mph N/A   Clear
12:55 AM 32.0 °F 18.4 °F 14.0 °F 48% 29.77 in 10.0 mi West 26.5 mph 32.2 mph N/A   Clear
1:15 AM 32.0 °F 18.4 °F 15.8 °F 51% 29.77 in 10.0 mi West 26.5 mph 34.5 mph N/A   Clear
1:35 AM 32.0 °F 19.2 °F 15.8 °F 51% 29.77 in 10.0 mi West 23.0 mph 36.8 mph N/A   Clear
1:55 AM 32.0 °F 17.4 °F 15.8 °F 51% 29.78 in 10.0 mi WNW 31.1 mph 40.3 mph N/A   Clear
2:15 AM 32.0 °F 17.6 °F 15.8 °F 51% 29.77 in 10.0 mi West 29.9 mph 38.0 mph N/A   Clear
2:35 AM 32.0 °F 18.4 °F 17.6 °F 55% 29.77 in 10.0 mi West 26.5 mph 42.6 mph N/A   Clear
2:55 AM 32.0 °F 17.9 °F 17.6 °F 55% 29.77 in 10.0 mi West 28.8 mph 36.8 mph N/A   Clear
3:15 AM 32.0 °F 18.4 °F 17.6 °F 55% 29.77 in 10.0 mi West 26.5 mph 35.7 mph N/A   Clear
3:35 AM 32.0 °F 18.4 °F 17.6 °F 55% 29.77 in 10.0 mi West 26.5 mph 35.7 mph N/A   Clear
3:55 AM 30.2 °F 17.4 °F 17.6 °F 60% 29.77 in 10.0 mi West 20.7 mph 28.8 mph N/A   Clear
4:15 AM 30.2 °F 16.5 °F 17.6 °F 60% 29.79 in 10.0 mi WNW 24.2 mph 29.9 mph N/A   Clear
4:35 AM 32.0 °F 18.6 °F 17.6 °F 55% 29.79 in 10.0 mi West 25.3 mph 32.2 mph N/A   Clear
4:55 AM 32.0 °F 18.4 °F 17.6 °F 55% 29.80 in 10.0 mi West 26.5 mph 33.4 mph N/A   Scattered Clouds
5:15 AM 32.0 °F 19.8 °F 17.6 °F 55% 29.80 in 10.0 mi WNW 20.7 mph - N/A   Scattered Clouds
5:35 AM 30.2 °F 18.1 °F 17.6 °F 60% 29.81 in 10.0 mi West 18.4 mph 25.3 mph N/A   Clear
5:55 AM 30.2 °F 19.3 °F 17.6 °F 60% 29.81 in 10.0 mi West 15.0 mph - N/A   Clear
6:10 AM 30.2 °F 18.9 °F 17.6 °F 60% 29.81 in 10.0 mi West 16.1 mph - N/A   Clear
6:35 AM 30.2 °F 18.5 °F 17.6 °F 60% 29.82 in 10.0 mi West 17.3 mph 21.9 mph N/A   Clear
6:55 AM 30.2 °F 18.9 °F 17.6 °F 60% 29.82 in 10.0 mi WNW 16.1 mph - N/A   Clear
7:15 AM 30.2 °F 18.9 °F 17.6 °F 60% 29.83 in 10.0 mi WNW 16.1 mph - N/A   Clear
7:35 AM 30.2 °F 17.8 °F 19.4 °F 64% 29.83 in 10.0 mi WNW 19.6 mph 26.5 mph N/A   Clear
7:55 AM 32.0 °F 18.6 °F 19.4 °F 60% 29.84 in 10.0 mi WNW 25.3 mph 28.8 mph N/A   Scattered Clouds
8:15 AM 32.0 °F 18.6 °F 19.4 °F 60% 29.84 in 10.0 mi WNW 25.3 mph 32.2 mph N/A   Mostly Cloudy
8:35 AM 32.0 °F 18.6 °F 19.4 °F 60% 29.84 in 10.0 mi WNW 25.3 mph 33.4 mph N/A   Overcast
8:55 AM 32.0 °F 19.2 °F 21.2 °F 64% 29.85 in 10.0 mi WNW 23.0 mph 32.2 mph N/A   Mostly Cloudy
9:15 AM 33.8 °F 21.0 °F 21.2 °F 60% 29.84 in 10.0 mi WNW 25.3 mph 34.5 mph N/A   Mostly Cloudy
9:35 AM 32.0 °F 17.4 °F 21.2 °F 64% 29.84 in 10.0 mi WNW 31.1 mph 36.8 mph N/A   Scattered Clouds
9:55 AM 33.8 °F 20.5 °F 19.4 °F 56% 29.84 in 10.0 mi WNW 27.6 mph 39.1 mph N/A   Scattered Clouds
10:15 AM 33.8 °F 19.6 °F 19.4 °F 56% 29.84 in 10.0 mi NW 32.2 mph 38.0 mph N/A   Overcast
10:35 AM 35.6 °F 23.0 °F 19.4 °F 52% 29.83 in 10.0 mi NW 27.6 mph 35.7 mph N/A   Overcast
10:55 AM 35.6 °F 24.2 °F 21.2 °F 56% 29.82 in 10.0 mi NW 21.9 mph 31.1 mph N/A   Overcast
11:15 AM 35.6 °F 23.2 °F 19.4 °F 52% 29.81 in 10.0 mi WNW 26.5 mph 35.7 mph N/A   Mostly Cloudy
11:35 AM 35.6 °F 23.2 °F 19.4 °F 52% 29.80 in 10.0 mi WNW 26.5 mph 33.4 mph N/A   Scattered Clouds
11:55 AM 39.2 °F 28.0 °F 17.6 °F 42% 29.79 in 10.0 mi WNW 26.5 mph 36.8 mph N/A   Scattered Clouds
12:15 PM 37.4 °F 25.0 °F 17.6 °F 45% 29.79 in 10.0 mi NW 29.9 mph 38.0 mph N/A   Scattered Clouds
12:35 PM 37.4 °F 25.4 °F 17.6 °F 45% 29.78 in 10.0 mi WNW 27.6 mph 36.8 mph N/A   Scattered Clouds
12:55 PM 37.4 °F 24.4 °F 17.6 °F 45% 29.77 in 10.0 mi WNW 33.4 mph 39.1 mph N/A   Scattered Clouds
1:15 PM 37.4 °F 24.8 °F 17.6 °F 45% 29.76 in 10.0 mi WNW 31.1 mph 36.8 mph N/A   Mostly Cloudy
1:35 PM 39.2 °F 28.5 °F 19.4 °F 45% 29.76 in 10.0 mi WNW 24.2 mph 27.6 mph N/A   Mostly Cloudy
1:55 PM 37.4 °F 25.4 °F 17.6 °F 45% 29.74 in 10.0 mi WNW 27.6 mph 33.4 mph N/A   Mostly Cloudy
2:15 PM 41.0 °F 29.7 °F 17.6 °F 39% 29.74 in 10.0 mi WNW 31.1 mph 35.7 mph N/A   Mostly Cloudy
2:35 PM 41.0 °F 30.7 °F 17.6 °F 39% 29.75 in 10.0 mi West 25.3 mph 38.0 mph N/A   Mostly Cloudy
2:55 PM 41.0 °F 30.0 °F 17.6 °F 39% 29.75 in 10.0 mi WNW 28.8 mph 38.0 mph N/A   Scattered Clouds
3:15 PM 41.0 °F 31.6 °F 19.4 °F 42% 29.76 in 10.0 mi WNW 20.7 mph 32.2 mph N/A   Scattered Clouds
3:35 PM 41.0 °F 30.0 °F 19.4 °F 42% 29.76 in 10.0 mi WNW 28.8 mph 33.4 mph N/A   Scattered Clouds
3:55 PM 41.0 °F 30.5 °F 19.4 °F 42% 29.76 in 10.0 mi West 26.5 mph 39.1 mph N/A   Scattered Clouds
4:15 PM 39.2 °F 29.0 °F 19.4 °F 45% 29.76 in 10.0 mi West 21.9 mph 28.8 mph N/A   Scattered Clouds
4:35 PM 37.4 °F 26.9 °F 19.4 °F 48% 29.76 in 10.0 mi West 20.7 mph 29.9 mph N/A   Scattered Clouds
4:55 PM 37.4 °F 26.1 °F 19.4 °F 48% 29.76 in 10.0 mi West 24.2 mph 29.9 mph N/A   Mostly Cloudy
5:15 PM 37.4 °F 25.6 °F 17.6 °F 45% 29.76 in 10.0 mi West 26.5 mph 36.8 mph N/A   Scattered Clouds
5:35 PM 35.6 °F 25.9 °F 21.2 °F 56% 29.77 in 10.0 mi West 16.1 mph 21.9 mph N/A   Mostly Cloudy
5:55 PM 35.6 °F 25.2 °F 19.4 °F 52% 29.77 in 10.0 mi West 18.4 mph 21.9 mph N/A   Overcast
6:15 PM 35.6 °F 26.6 °F 19.4 °F 52% 29.79 in 10.0 mi West 13.8 mph - N/A   Overcast
6:35 PM 33.8 °F 24.3 °F 19.4 °F 56% 29.80 in 10.0 mi West 13.8 mph - N/A   Mostly Cloudy
6:55 PM 33.8 °F 23.5 °F 19.4 °F 56% 29.80 in 10.0 mi West 16.1 mph - N/A   Mostly Cloudy
7:15 PM 32.0 °F 22.1 °F 21.2 °F 64% 29.82 in 10.0 mi NW 13.8 mph - N/A   Mostly Cloudy
7:35 PM 30.2 °F 21.9 °F 23.0 °F 75% 29.83 in 10.0 mi North 9.2 mph - N/A   Scattered Clouds
7:55 PM 28.4 °F 20.4 °F 24.8 °F 86% 29.84 in 10.0 mi North 8.1 mph - N/A   Scattered Clouds
8:15 PM 28.4 °F 23.3 °F 24.8 °F 86% 29.86 in 10.0 mi North 4.6 mph - N/A   Clear
8:35 PM 26.6 °F 20.0 °F 23.0 °F 86% 29.86 in 10.0 mi North 5.8 mph - N/A   Clear
8:55 PM 26.6 °F 20.0 °F 23.0 °F 86% 29.86 in 10.0 mi NNW 5.8 mph - N/A   Clear
9:15 PM 24.8 °F 13.4 °F 23.0 °F 93% 29.87 in 10.0 mi North 12.7 mph 17.3 mph N/A   Clear
9:35 PM 26.6 °F 13.1 °F 24.8 °F 93% 29.87 in 10.0 mi North 19.6 mph 24.2 mph N/A   Mostly Cloudy
9:55 PM 26.6 °F 14.7 °F 23.0 °F 86% 29.88 in 10.0 mi North 15.0 mph - N/A   Overcast
10:15 PM 26.6 °F 19.1 °F 23.0 °F 86% 29.89 in 10.0 mi NNE 6.9 mph - N/A   Overcast
10:35 PM 24.8 °F 17.9 °F 21.2 °F 86% 29.90 in 10.0 mi North 5.8 mph - N/A   Scattered Clouds
10:55 PM 23.0 °F 15.8 °F 21.2 °F 93% 29.89 in 10.0 mi North 5.8 mph - N/A   Clear
11:15 PM 23.0 °F - 21.2 °F 93% 29.89 in 10.0 mi Calm Calm - N/A   Clear
11:35 PM 21.2 °F 14.9 °F 19.4 °F 93% 29.87 in 10.0 mi NNE 4.6 mph - N/A   Scattered Clouds
11:55 PM 21.2 °F 11.7 °F 19.4 °F 93% 29.86 in 10.0 mi North 8.1 mph - N/A   Clear